Flag for France Weather past 2 weeks in Strasbourg, France

Now
28 °F

Clear.


Feels Like: 28 °F
Forecast: 32 / 50 °F
Wind: 1 mph from North

Location: Strasbourg Airport

Current Time: Mar 6, 2015 at 3:24:18 AM

Latest Report: Mar 6, 2015 at 3:00 AM


Visibility: N/A

Pressure: 30.63 "Hg

Humidity: 93%

Dew point: 27 °F

Location of StrasbourgLocation

Historic Weather in Strasbourg — Graph

°F

Strasbourg temperature yesterday

Maximum temperature yesterday: 48 °F (at 2:00 PM)
Minimum temperature yesterday: 32 °F (at 11:30 PM)
Average temperature yesterday: 41 °F

Past Weeks' High & Low Weather Summary

 TemperatureHumidityPressure
High57 °F (Feb 20, 2:30 PM)100% (Feb 19, 11:30 PM)30.66 "Hg (Feb 19, 11:30 PM)
Low25 °F (Feb 20, 5:00 AM)36% (Mar 3, 4:30 PM)29.50 "Hg (Feb 23, 2:00 PM)
Average41 °F76%30.02 "Hg
* Reported Feb 19 2:00 AM — Mar 6 2:00 AM, Strasbourg, Weather by CustomWeather, © 2015

Note: Actual official high and low records may vary slightly from our data, if they occured in-between our weather recording intervals... More about our weather records

Advertising

Strasbourg weather history for previous 24 hours

 ConditionsComfort  
Time TempWeatherWind HumidityBarometerVisibility
2:00 AM
Fri, Mar 6
30 °FClear.2 mph86%30.66 "HgN/A
1:30 AM30 °FClear.2 mph86%30.63 "HgN/A
1:00 AM30 °FClear.No wind93%30.63 "HgN/A
12:30 AM32 °FClear.2 mph87%30.63 "HgN/A
12:00 AM32 °FClear.2 mph87%30.66 "HgN/A
11:30 PM
Thu, Mar 5
32 °FClear.1 mph87%30.63 "HgN/A
11:00 PM34 °FClear.2 mph81%30.66 "HgN/A
10:30 PM34 °FClear.1 mph81%30.66 "HgN/A
10:00 PM36 °FClear.2 mph81%30.63 "HgN/A
9:30 PM36 °FClear.1 mph81%30.63 "HgN/A
9:00 PM37 °FClear.5 mph75%30.63 "HgN/A
8:30 PM39 °FClear.No wind70%30.63 "HgN/A
8:00 PM39 °FClear.1 mph70%30.63 "HgN/A
7:30 PM43 °FClear.2 mph57%30.63 "HgN/A
7:00 PM43 °FPassing clouds.5 mph61%30.63 "HgN/A
6:30 PM45 °FPassing clouds.6 mph53%30.60 "HgN/A
6:00 PM46 °FPartly sunny.7 mph50%30.60 "HgN/A
5:30 PM46 °FPartly sunny.9 mph53%30.60 "HgN/A
5:00 PM48 °FPartly sunny.8 mph46%30.60 "HgN/A
4:30 PM48 °FBroken clouds.7 mph43%30.60 "HgN/A
4:00 PM48 °FOvercast.7 mph43%30.60 "HgN/A
3:30 PM46 °FPartly sunny.8 mph50%30.60 "HgN/A
3:00 PM46 °FBroken clouds.8 mph50%30.60 "HgN/A
2:30 PM48 °FPassing clouds.7 mph43%30.60 "HgN/A
2:00 PM48 °FScattered clouds.6 mph46%30.60 "HgN/A
1:30 PM45 °FPartly sunny.8 mph53%30.63 "HgN/A
1:00 PM46 °FPassing clouds.8 mph50%30.63 "HgN/A
12:30 PM45 °FPartly sunny.9 mph53%30.63 "HgN/A
12:00 PM45 °FPartly sunny.9 mph53%30.63 "HgN/A
11:30 AM43 °FPartly sunny.10 mph61%30.63 "HgN/A
11:00 AM45 °FPartly sunny.9 mph53%30.63 "HgN/A
10:30 AM45 °FOvercast.12 mph57%30.63 "HgN/A
10:00 AM43 °FPartly sunny.13 mph66%30.63 "HgN/A
9:30 AM41 °FPartly sunny.10 mph70%30.63 "HgN/A
9:00 AM41 °FPartly sunny.12 mph70%30.63 "HgN/A
8:30 AM39 °FOvercast.9 mph75%30.60 "HgN/A
8:00 AM39 °FOvercast.10 mph75%30.60 "HgN/A
7:30 AM37 °FOvercast.9 mph81%30.60 "HgN/A
7:00 AM37 °FOvercast.10 mph81%30.60 "HgN/A
6:30 AM37 °FOvercast.8 mph81%30.57 "HgN/A
6:00 AM37 °FLight rain. Overcast.8 mph81%30.57 "HgN/A
5:30 AM37 °FMostly cloudy.8 mph81%30.57 "HgN/A
4:30 AM37 °FOvercast.8 mph81%30.54 "HgN/A
4:00 AM37 °FOvercast.7 mph75%30.54 "HgN/A
3:00 AM37 °FOvercast.7 mph81%30.54 "HgN/A
Weather by CustomWeather, © 2015

See weather overviewHow to use our weather pages